User: anonymous
Location: Cluny
(50.9333°N, 112.8167°W)
Time: 07:08:44
(UTC-06:00)
Language:

Cosmos 1743 Rocket - Orbit

View from above orbital plane
View from above orbital plane
View from above satellite
View from above satellite

Ground track
Ground track

The orbit data is extracted from the following two-line orbital elements,

1 16720U 86034B   14210.81665380  .00000218  00000-0  23945-4 0  5086
2 16720 082.5564 143.2930 0019475 339.6500 049.0303 14.82761159523139
Epoch (UTC): 29 July 2014 19:35:58
Eccentricity: 0.0019475
inclination: 82.5564°
perigee height: 607 km
apogee height: 634 km
right ascension of ascending node: 143.2930°
argument of perigee: 339.6500°
revolutions per day: 14.82761159
mean anomaly at epoch: 49.0303°
orbit number at epoch: 52313

The dashed part of the orbit path shows where the satellite is in the earth's shadow,  

DLR